Home   Weather   Tokyo   Past weeks

Flag for Japan Past Weather in Tokyo, Japan — Yesterday and Last 2 Weeks

Now
76 °F

Mild.


Feels Like: 78 °F
Forecast: 69 / 86 °F
Wind: 14 mph from Southwest

Location: Tokyo

Current Time: Aug 31, 2016 at 12:01:12 AM

Latest Report: Aug 30, 2016 at 11:00 PM


Visibility: N/A

Pressure: 29.29 "Hg

Humidity: 65%

Dew Point: 63 °F

Location of TokyoLocation

Past Weather in Tokyo — Graph

°F

Tokyo Temperature Yesterday

Maximum temperature yesterday: 82 °F (at 3:00 PM)
Minimum temperature yesterday: 73 °F (at 8:00 PM)
Average temperature yesterday: 77 °F

High & Low Weather Summary for the Past Weeks

 TemperatureHumidityPressure
High93 °F (Aug 17, 12:00 PM)100% (Aug 17, 6:00 AM)29.83 "Hg (Aug 17, 6:00 AM)
Low71 °F (Aug 28, 5:00 AM)52% (Aug 16, 12:00 PM)29.00 "Hg (Aug 30, 11:00 AM)
Average80 °F85%29.61 "Hg
* Reported Aug 15 10:00 PM — Aug 30 10:00 PM, Tokyo, Weather by CustomWeather, © 2016

Note: Actual official high and low records may vary slightly from our data, if they occured in-between our weather recording intervals... More about our weather records

Advertising

Tokyo Weather History for the Previous 24 Hours

Scroll right to see more
 ConditionsComfort  
Time TempWeatherWind HumidityBarometerVisibility
10:00 PM
Tue, Aug 30
76 °FMild.9 mph66%29.26 "HgN/A
9:00 PM75 °FPassing clouds.6 mph72%29.23 "Hg12 mi
8:00 PM73 °FMild.7 mph87%29.21 "HgN/A
7:00 PM75 °FMild.5 mph86%29.18 "HgN/A
6:00 PM74 °FOvercast.7 mph88%29.12 "Hg19 mi
5:00 PM78 °FWarm.5 mph85%29.09 "HgN/A
4:00 PM78 °FWarm.10 mph90%29.06 "HgN/A
3:00 PM82 °FOvercast.8 mph81%29.03 "Hg12 mi
2:00 PM81 °FWarm.9 mph87%29.00 "HgN/A
1:00 PM81 °FWarm.9 mph77%29.00 "HgN/A
12:00 PM81 °FOvercast.14 mph81%29.00 "Hg16 mi
11:00 AM79 °FWarm.13 mph89%29.00 "HgN/A
10:00 AM77 °FMild.13 mph92%29.03 "HgN/A
9:00 AM76 °FRain showers. Overcast.7 mph98%29.03 "Hg2 mi
8:00 AM76 °FMild.7 mph98%29.03 "HgN/A
7:00 AM76 °FMild.8 mph99%29.03 "HgN/A
6:00 AM76 °FSprinkles. Low clouds.8 mph99%29.06 "Hg3 mi
5:00 AM77 °FMild.8 mph99%29.06 "HgN/A
4:00 AM78 °FWarm.8 mph97%29.09 "HgN/A
3:00 AM78 °FSprinkles. Overcast.8 mph97%29.09 "Hg6 mi
2:00 AM77 °FWarm.6 mph99%29.12 "HgN/A
1:00 AM77 °FWarm.5 mph100%29.12 "HgN/A
12:00 AM78 °FWarm.6 mph98%29.15 "HgN/A
Weather by CustomWeather, © 2016

See weather overviewHow to use our weather pages